GFSSW_prec_cloud_003.txt.gz
Cloud_Cover
93 86 6 1 14 100 100 100 99 92 78 66 97 100 99 100 26 15 0 5 3 100 93 10 5 85 86 100 100 100 100 100 100 100 100 100 100 100 100 100 100 100 100 76 14
100 100 100 100 100 100 100 94 14 83 7 0 29 86 100 100 2 0 0 20 100 59 51 100 75 94 100 100 100 100 100 100 100 100 100 100 100 100 100 100 100 100 100 81 57
100 100 100 100 95 100 100 98 100 100 2 36 57 100 100 86 1 3 0 100 100 41 100 100 96 82 100 100 100 100 100 100 100 100 100 100 100 100 100 100 100 100 100 100 100
100 100 100 100 84 100 100 100 100 89 38 93 94 100 100 3 3 0 0 57 100 100 100 100 86 84 8 60 87 90 100 100 100 100 100 100 100 100 100 100 100 100 100 100 100
100 100 100 100 64 98 100 100 100 100 100 100 100 100 7 60 1 0 68 100 99 100 100 100 100 84 1 2 3 8 100 100 100 100 100 100 100 100 100 100 100 100 100 100 100
100 100 47 29 8 99 100 100 100 100 100 100 100 100 100 5 50 85 100 64 84 60 96 100 96 27 86 67 0 99 100 100 100 100 100 100 100 100 100 100 100 100 100 100 100
100 100 97 100 37 100 100 100 100 100 100 100 100 91 57 98 96 100 72 65 67 77 98 99 99 100 58 6 0 0 65 100 100 100 100 100 100 100 100 100 100 100 100 100 100
100 100 90 26 100 100 100 100 100 100 100 100 100 85 100 49 100 96 100 100 100 100 73 4 1 0 0 0 0 0 41 65 68 2 91 100 100 100 100 80 48 14 76 88 89
91 89 30 74 100 100 100 100 100 100 100 100 15 93 100 24 96 25 3 0 2 2 0 0 0 0 0 0 0 0 3 4 2 0 0 0 7 2 1 0 0 0 0 2 1
93 100 96 100 100 100 100 100 82 92 61 3 0 14 0 0 0 0 0 0 0 0 0 0 0 0 31 3 4 4 100 67 1 0 0 0 62 18 0 0 0 3 4 2 5
100 100 100 100 100 100 100 47 30 5 0 2 0 0 0 0 0 0 0 0 0 0 0 0 1 0 0 0 5 95 83 68 5 0 2 4 0 0 2 11 5 5 5 5 5
100 100 100 100 100 97 65 1 1 0 0 3 0 0 4 0 0 0 0 0 0 0 0 4 3 9 30 63 60 66 92 82 6 70 19 44 69 38 8 68 3 0 0 0 0
100 100 100 100 42 50 8 5 5 2 0 3 3 1 24 19 6 12 49 58 38 29 32 63 42 23 28 31 30 10 7 12 15 7 2 1 5 4 0 0 0 0 0 0 0
100 99 6 37 8 4 2 1 35 14 4 4 20 34 52 75 70 68 39 52 65 21 9 9 0 0 0 0 0 0 0 0 0 0 0 0 71 5 1 0 0 0 0 0 0
100 5 5 6 5 2 4 6 58 88 8 28 63 81 37 22 5 5 2 0 1 0 0 0 0 0 0 0 0 0 0 0 0 0 0 0 47 100 93 89 2 5 0 5 1
99 50 5 5 2 16 80 65 19 59 25 46 79 45 5 2 0 0 0 0 0 0 0 0 0 0 0 0 0 0 0 0 0 0 0 0 24 98 50 90 5 5 6 58 17
5 1 8 5 12 60 18 100 63 58 42 46 48 1 0 0 0 0 0 0 0 0 1 0 0 0 0 0 0 0 0 0 0 33 75 40 33 98 49 64 96 5 5 0 0
72 43 33 35 6 74 28 6 24 6 6 5 0 0 0 0 0 2 0 0 0 0 5 3 36 0 0 0 0 0 0 0 0 2 0 1 47 31 15 22 97 98 34 8 5
93 92 32 5 5 5 39 45 8 5 5 2 0 0 0 0 0 2 0 0 0 0 4 3 2 0 0 0 0 0 0 0 0 0 0 0 4 79 69 86 94 99 82 61 54
100 96 7 6 7 62 41 8 5 5 1 0 0 4 4 0 0 0 0 1 0 0 0 0 0 0 0 0 0 0 0 0 2 3 1 2 28 20 67 46 56 24 75 17 43
100 98 44 9 55 9 12 14 9 0 0 0 5 31 83 4 30 12 0 0 0 0 0 0 0 0 0 0 0 0 0 0 0 0 2 4 1 4 10 15 68 5 48 10 5
36 100 84 11 9 74 60 13 5 5 5 4 0 0 9 5 7 5 5 0 0 0 0 0 0 0 3 1 0 0 0 0 0 3 1 1 1 0 34 28 16 81 62 5 6
100 100 100 12 23 21 31 10 5 4 0 0 5 0 0 5 32 5 5 5 5 0 0 0 0 0 0 0 0 1 1 0 0 0 0 1 2 80 94 10 78 24 5 5 5
100 100 100 7 58 64 43 25 5 5 5 0 5 0 0 5 5 5 5 5 5 0 0 0 0 0 0 0 0 0 0 0 3 5 4 0 1 2 27 40 44 86 25 5 5
100 100 98 90 66 45 55 12 5 5 5 0 0 0 2 4 5 5 5 5 5 1 0 0 0 0 0 0 0 0 0 0 0 0 5 3 80 63 39 45 99 92 7 5 5
100 95 5 8 6 34 73 5 5 48 5 5 4 5 5 5 3 0 0 2 0 0 0 0 40 0 0 0 0 0 0 0 0 0 0 20 48 5 5 5 5 5 5 5 5
100 100 99 41 35 21 18 5 5 5 5 5 5 5 5 5 5 4 0 0 0 0 0 27 35 21 24 4 3 0 0 0 0 1 10 6 6 5 5 0 5 37 11 37 55

GFSSW_prec_cloud_006.txt.gz
Cloud_Cover
100 100 100 100 82 28 8 100 100 100 100 100 100 100 100 100 32 43 0 4 12 24 100 97 100 100 100 59 12 100 100 100 100 100 100 100 100 100 100 100 100 100 100 100 100
100 100 100 100 100 100 100 100 100 77 99 99 83 100 100 100 7 1 0 4 39 100 99 100 100 100 29 9 99 100 100 100 100 100 100 100 100 100 100 100 100 100 100 100 100
100 100 100 100 100 100 100 100 100 100 100 88 100 100 100 78 0 0 1 26 100 100 100 100 100 85 64 85 100 100 100 100 100 100 100 100 100 100 100 100 100 100 100 100 100
100 100 100 100 100 100 100 100 100 100 100 100 100 100 100 21 0 3 0 96 81 100 28 100 100 99 100 100 100 64 100 100 100 100 100 100 100 100 100 100 100 100 100 100 100
100 100 100 100 100 97 100 100 100 100 100 100 100 100 8 1 30 5 0 48 100 95 83 96 100 100 100 100 98 65 75 100 100 100 100 100 100 100 100 100 100 100 100 100 100
100 100 100 100 99 92 100 100 100 100 100 100 100 98 100 65 69 5 0 94 91 91 6 91 100 100 94 58 39 6 76 99 100 100 100 100 100 100 100 100 100 100 100 100 100
100 100 100 100 66 35 100 100 100 100 100 100 100 100 100 13 5 2 95 100 99 100 100 100 98 90 100 100 100 5 4 8 100 100 100 100 100 93 99 100 100 100 100 100 100
100 98 82 100 100 100 100 100 100 100 100 100 100 100 98 97 96 100 100 76 100 99 99 100 100 100 100 37 6 5 5 0 4 1 2 3 56 100 100 93 100 100 99 100 100
71 62 65 100 24 100 100 100 100 100 100 100 99 58 100 95 45 100 100 41 100 100 100 100 100 100 93 6 4 5 5 5 0 0 0 0 30 38 5 81 3 0 20 42 28
5 89 92 93 100 100 100 100 100 63 76 20 100 95 48 79 96 100 95 96 100 100 72 49 36 5 1 4 4 3 5 2 5 0 0 0 0 0 2 0 0 0 0 0 0
21 100 77 92 100 100 100 98 28 5 0 4 40 86 64 41 0 3 0 0 0 0 0 0 0 0 0 0 5 84 13 0 5 6 8 5 0 0 0 0 0 0 5 4 5
100 99 99 100 100 94 79 36 4 0 0 0 0 0 0 0 0 0 0 0 0 0 4 0 0 0 0 0 32 100 69 0 0 1 1 3 5 5 5 5 5 5 5 5 10
99 75 100 100 100 44 56 10 5 4 0 0 0 0 0 0 0 0 0 0 0 0 1 0 2 2 2 19 5 57 35 6 9 18 9 7 32 29 3 2 0 0 0 54 95
57 100 100 100 99 38 2 0 4 4 0 0 0 0 2 2 3 4 3 2 4 5 5 5 5 5 5 19 5 44 53 59 1 2 0 0 3 5 0 0 0 1 75 97 100
100 100 100 96 4 2 3 5 5 5 0 3 5 5 6 6 6 7 22 5 5 3 1 0 0 0 0 0 0 0 0 0 0 0 0 0 3 4 5 5 0 8 40 88 75
100 100 98 33 5 5 4 0 5 77 12 18 5 44 31 5 5 4 4 2 0 0 0 0 0 0 0 0 0 0 0 0 0 0 0 0 1 18 5 10 54 100 65 83 37
100 95 45 65 7 5 5 12 25 89 5 20 56 37 40 3 0 0 0 0 0 0 0 0 0 0 0 0 0 0 0 0 0 4 0 0 22 10 61 47 35 18 5 5 5
98 77 52 11 27 30 78 17 5 70 77 80 16 5 2 0 0 0 0 0 0 0 0 0 2 0 0 0 0 0 0 0 0 2 5 5 1 0 8 15 87 44 31 9 99
96 85 98 58 86 51 12 21 70 88 54 11 4 0 0 0 0 0 0 0 0 4 1 3 0 0 2 4 3 0 0 0 0 0 0 0 0 5 16 74 43 98 95 54 5
63 40 85 86 62 84 84 52 5 6 5 5 0 0 0 0 0 0 0 0 2 1 2 3 0 0 0 0 0 0 0 0 0 0 0 0 2 57 32 52 6 5 5 5 5
64 62 97 80 91 73 8 33 7 5 5 0 0 4 5 1 0 0 0 0 0 4 0 0 0 0 0 0 0 0 0 0 0 0 2 4 3 0 1 5 4 0 5 5 5
89 100 100 44 27 38 58 32 5 5 5 0 0 3 5 5 0 0 0 0 5 3 0 0 2 0 0 0 0 0 0 0 0 3 0 2 1 0 4 49 96 98 99 74 100
99 100 82 63 55 33 22 33 14 5 5 1 1 4 4 5 2 5 3 2 0 0 4 4 3 0 0 0 1 4 5 2 0 0 0 3 0 0 12 90 97 80 19 5 6
100 90 73 23 9 8 5 9 22 5 2 4 5 4 0 4 5 5 54 6 5 5 5 5 3 0 0 0 0 0 3 4 5 5 4 0 0 0 4 5 4 2 3 4 67
100 98 96 92 64 5 5 5 5 5 5 5 2 0 4 5 5 5 5 5 5 1 0 0 0 0 0 3 5 5 0 0 0 2 4 0 0 2 4 5 5 4 5 79 94
88 84 100 15 5 5 5 5 5 5 5 5 5 11 5 5 0 4 5 5 4 0 0 0 38 0 0 1 1 0 0 0 0 0 0 0 0 0 0 5 5 5 5 68 99
64 71 100 84 5 32 54 5 5 10 35 7 5 5 5 0 5 5 5 5 5 4 4 23 24 2 5 14 3 5 4 0 0 0 0 0 0 0 0 0 4 5 6 71 100

GFSSW_prec_cloud_012.txt.gz
Cloud_Cover
100 100 100 100 100 100 100 100 100 100 100 100 100 100 100 100 67 51 5 0 0 1 14 100 100 98 100 91 25 9 5 24 86 100 100 91 100 100 100 100 100 100 100 100 100
100 100 100 100 100 100 100 100 100 100 100 100 100 100 100 100 87 2 0 0 0 1 56 90 62 100 99 96 100 98 50 96 100 100 100 100 100 100 100 100 100 100 100 100 100
100 100 100 100 100 100 100 100 100 100 100 100 100 100 100 99 32 0 0 0 0 25 100 77 63 100 100 90 100 66 58 66 63 100 91 100 100 100 100 100 100 100 100 100 100
100 100 100 100 100 100 100 100 100 100 100 100 100 100 100 91 0 0 2 52 81 93 78 100 100 74 100 100 98 98 70 99 100 100 100 100 100 100 100 100 100 100 100 100 100
100 100 100 100 100 100 100 100 100 100 100 100 100 100 49 22 2 0 48 86 100 100 72 89 92 72 100 100 100 100 100 100 100 100 100 100 100 100 100 100 100 100 100 100 100
100 100 100 100 100 100 100 100 100 100 100 100 100 100 32 18 62 71 5 88 100 99 100 100 99 100 100 100 100 100 88 100 100 95 99 100 100 100 100 100 100 100 100 99 100
100 100 100 100 100 100 100 100 100 100 100 100 100 86 98 56 100 100 100 100 100 100 100 88 89 100 100 96 100 100 92 100 100 25 100 100 100 100 100 100 100 100 100 100 100
100 100 100 98 100 100 100 100 100 100 100 100 100 59 69 5 89 100 98 24 100 100 100 100 100 88 96 100 100 100 83 100 100 100 100 100 99 100 100 98 75 61 99 99 100
100 100 100 100 100 100 100 100 100 100 100 100 66 100 98 91 100 100 37 100 100 93 100 100 98 100 100 100 88 90 53 58 99 100 51 5 14 50 40 6 24 5 5 5 5
100 100 99 96 99 100 100 100 100 93 99 90 12 6 98 69 84 100 95 100 100 100 100 84 100 100 100 100 98 84 66 29 32 58 47 62 31 10 5 5 5 5 37 58 29
66 98 100 8 78 100 98 76 30 18 62 69 17 96 79 100 100 95 100 98 100 86 84 85 84 100 100 100 92 99 34 42 5 5 5 31 64 41 44 34 22 5 5 5 5
4 99 99 5 83 100 90 87 12 67 100 61 86 30 74 24 1 0 3 38 94 66 100 100 100 100 100 100 100 69 4 2 4 5 5 5 6 5 5 21 34 14 5 5 5
31 51 7 42 94 97 99 51 100 83 100 100 100 100 100 100 100 100 75 35 79 100 100 87 100 100 100 64 2 0 3 4 2 0 0 0 2 5 5 8 10 5 78 86 70
10 10 5 99 45 87 63 7 16 84 97 100 100 100 100 96 90 100 99 77 38 81 54 56 7 50 5 5 4 0 0 0 1 5 4 46 23 5 11 14 11 20 10 1 5
100 0 3 7 18 6 0 0 2 5 59 7 15 0 0 0 0 0 0 0 0 0 0 0 0 0 2 0 1 0 0 4 52 70 72 17 5 4 0 0 0 0 0 4 48
82 3 97 71 33 10 0 1 1 2 0 0 0 0 0 0 0 0 0 0 0 0 0 0 0 0 0 4 5 5 5 5 5 4 2 0 0 0 0 0 0 5 5 5 5
65 50 99 100 55 5 4 5 0 0 0 0 0 0 0 1 3 5 5 5 6 5 12 9 5 5 5 5 3 0 0 0 0 2 0 0 0 0 0 0 0 5 5 5 5
47 96 100 100 12 5 5 0 0 0 3 3 33 9 5 5 5 5 5 5 5 5 5 0 0 0 0 0 0 0 0 0 0 5 0 0 0 0 0 0 0 0 0 0 3
70 68 100 100 16 5 5 0 0 1 5 5 20 5 0 1 0 0 0 0 0 0 0 0 0 0 0 0 0 0 0 0 0 0 0 0 0 0 0 0 0 0 0 5 60
53 59 100 93 6 5 5 2 0 13 5 5 4 4 0 0 0 0 0 0 0 0 0 0 0 0 0 0 0 0 0 0 0 0 0 0 0 0 0 0 0 0 2 5 1
4 100 100 65 5 21 5 5 57 68 9 5 5 1 0 0 0 0 0 0 0 0 0 1 0 0 0 0 0 0 0 0 0 2 2 1 0 0 0 0 0 0 0 3 5
31 97 66 5 33 6 5 61 65 12 5 5 4 5 5 5 0 0 0 0 0 0 0 0 4 0 0 0 0 0 0 0 0 0 16 5 1 0 0 0 0 0 0 5 5
100 80 20 5 38 5 22 85 40 62 7 5 6 5 5 5 10 0 0 0 0 0 0 0 0 0 0 0 0 0 0 0 0 0 0 4 0 0 0 0 0 0 0 3 5
83 5 5 54 5 5 33 71 60 6 5 5 5 5 5 2 5 2 0 0 0 0 0 0 0 0 4 5 5 4 0 0 0 0 0 2 0 0 4 5 5 5 5 5 5
3 6 98 54 9 56 100 75 47 15 60 26 5 5 3 5 5 4 0 0 0 0 0 0 1 5 5 5 5 5 0 0 0 0 3 0 0 5 5 5 5 5 4 3 5
5 94 100 13 5 46 81 47 68 100 86 5 5 5 7 5 4 0 2 4 5 18 23 5 40 5 0 1 5 15 5 5 5 21 23 5 5 5 5 5 5 5 5 17 5
20 97 99 6 5 26 59 100 99 95 30 7 5 52 8 5 5 8 98 94 84 70 7 5 10 5 5 5 53 99 5 8 21 71 5 17 10 5 16 68 80 98 100 100 100

GFSSW_prec_cloud_015.txt.gz
Cloud_Cover
100 100 100 100 100 100 100 100 100 100 100 100 100 100 100 100 82 66 7 2 4 3 0 0 5 97 100 58 84 51 100 100 69 30 91 100 100 100 100 100 100 100 100 100 100
100 100 100 100 100 100 100 100 100 100 100 100 100 100 100 100 53 2 2 0 0 5 5 0 31 100 100 100 100 100 100 100 99 85 100 100 100 100 100 100 100 100 100 100 100
100 100 100 100 100 100 100 100 100 100 100 100 100 100 100 96 31 0 0 0 0 3 2 0 6 100 100 100 100 100 95 100 100 100 100 100 100 85 100 100 100 96 100 100 100
100 100 100 100 100 100 100 91 90 100 100 100 100 100 100 91 0 0 0 0 3 0 0 5 19 100 100 100 98 100 100 100 100 100 100 100 95 100 68 100 99 100 100 100 100
100 100 100 100 100 100 100 95 100 100 100 100 100 100 63 68 1 0 0 3 100 100 48 100 100 100 96 74 100 100 100 100 100 100 100 100 100 94 100 100 100 100 100 100 100
100 100 100 100 100 100 100 100 81 100 100 100 100 98 65 73 44 5 5 12 100 100 100 99 100 94 88 100 100 100 100 100 100 100 100 100 100 100 100 100 100 100 99 100 100
100 100 100 100 100 100 100 100 100 100 100 100 100 98 60 68 12 21 99 100 100 78 94 100 100 100 100 100 100 100 100 100 100 100 100 100 100 100 100 100 99 100 100 100 100
100 100 100 100 100 100 100 100 100 100 100 100 100 98 34 5 5 41 21 100 66 59 100 100 100 79 99 99 100 100 100 100 100 100 83 91 100 100 100 100 100 100 100 100 100
100 100 100 100 100 100 100 100 100 100 100 100 88 40 92 37 6 46 100 88 71 100 100 100 97 93 100 100 100 100 96 92 100 100 100 100 100 100 100 100 89 100 100 92 75
100 100 100 100 100 100 100 100 100 97 99 91 26 5 98 100 16 100 9 97 99 99 76 100 100 100 100 92 100 76 100 100 100 100 100 98 67 85 99 99 100 96 91 86 80
100 100 98 61 100 100 62 100 82 28 73 22 24 25 100 47 62 28 100 100 100 100 100 100 100 90 100 99 78 100 100 100 84 60 48 27 46 20 6 72 99 92 88 80 78
99 58 20 95 100 100 95 25 20 22 93 100 96 100 100 100 100 85 100 100 100 100 100 78 96 89 91 100 100 83 84 100 100 9 1 1 5 5 5 25 12 5 5 66 84
24 12 4 100 100 86 81 5 50 99 100 74 43 14 38 4 89 55 4 90 54 98 70 98 99 100 100 100 97 100 100 69 5 4 5 5 15 6 5 5 5 5 5 5 4
0 0 62 100 46 31 9 50 95 96 94 67 100 100 100 100 100 100 81 36 100 72 100 100 100 97 57 100 100 99 6 4 3 15 75 5 5 5 5 1 4 7 7 35 63
0 0 84 6 10 2 5 5 5 72 48 37 100 86 100 100 100 100 100 100 91 100 99 93 96 99 100 97 12 0 5 4 2 5 5 5 5 5 0 3 5 2 0 0 0
0 1 96 57 66 5 5 0 8 62 86 99 100 78 8 6 14 10 1 2 32 6 3 2 11 6 5 1 4 3 2 10 15 42 21 6 5 2 0 0 0 0 0 0 0
6 17 98 19 4 5 4 0 18 65 0 2 0 0 0 0 0 0 0 0 0 0 0 0 0 0 0 0 0 5 5 63 77 31 1 0 0 0 0 0 0 0 0 0 4
32 99 99 32 100 9 0 0 4 0 0 0 0 0 0 0 0 0 0 0 0 0 0 3 5 24 5 5 4 1 0 0 0 0 0 0 0 0 0 0 0 0 0 0 0
96 100 100 13 100 61 3 5 2 0 0 0 0 5 2 5 5 5 5 5 4 4 0 0 1 0 0 0 0 0 0 0 0 0 0 0 0 0 0 0 0 0 0 0 0
19 26 97 59 100 75 5 5 0 0 0 2 5 5 5 4 0 0 0 0 0 0 0 0 0 0 0 0 0 0 0 0 0 0 0 0 0 0 0 0 0 0 0 0 1
0 3 97 86 100 31 5 5 2 5 5 4 5 2 0 0 0 0 0 0 0 0 0 0 0 0 0 0 0 0 0 0 0 0 0 0 0 0 0 0 0 0 0 1 1
0 21 100 72 100 40 5 5 5 23 5 5 3 0 0 0 0 0 0 0 0 0 0 0 4 0 0 0 0 0 0 0 0 0 2 1 0 0 0 0 0 5 5 5 0
3 43 100 49 100 19 46 5 78 48 5 5 0 0 0 4 5 1 0 0 0 0 0 0 0 0 0 0 0 0 0 0 0 0 0 1 0 0 5 5 8 6 5 2 2
0 31 99 5 100 11 74 48 25 5 14 5 3 0 0 0 4 35 0 0 0 0 0 0 0 0 0 0 4 5 5 0 0 0 0 2 12 5 6 5 7 5 5 5 14
1 20 100 51 77 7 20 8 5 23 12 5 6 1 0 0 2 5 5 2 5 0 1 0 0 0 4 5 5 5 5 4 5 3 5 5 8 87 10 47 17 5 5 92 100
24 97 100 100 60 53 72 27 5 18 5 34 91 5 5 5 4 5 4 5 5 5 5 5 5 5 5 5 5 63 22 5 5 2 5 5 5 5 5 5 5 6 61 46 44
100 100 100 82 5 7 75 61 44 76 11 25 6 5 5 5 5 5 2 5 5 15 25 24 7 5 69 8 27 100 10 5 5 5 5 32 8 5 5 14 54 96 35 47 31

GFSSW_prec_cloud_018.txt.gz
Cloud_Cover
100 100 100 100 100 100 100 100 100 100 100 100 100 100 100 100 58 0 0 3 10 56 98 40 6 1 0 16 100 90 100 61 90 82 19 63 73 100 100 100 100 100 100 98 100
100 100 100 100 100 100 99 98 100 98 99 100 100 100 100 100 0 0 0 0 3 7 79 14 5 4 0 86 100 71 100 82 100 95 77 100 100 85 100 100 100 100 100 100 100
100 99 44 94 72 98 100 100 86 100 98 100 100 100 100 36 0 0 0 0 0 3 9 58 69 8 1 92 100 100 100 95 100 100 100 99 100 100 100 100 100 100 100 100 100
31 84 100 100 100 100 99 100 100 100 100 100 100 100 96 0 1 0 0 0 0 0 19 49 57 14 7 100 100 100 100 100 100 100 100 100 97 81 42 69 100 100 100 100 100
1 99 100 100 100 100 100 100 99 100 100 100 100 100 86 7 0 0 0 0 1 2 0 12 71 30 100 100 100 100 100 100 100 100 100 94 65 72 100 100 95 100 100 94 88
0 48 100 100 100 100 100 100 86 100 100 100 100 100 100 4 5 19 1 0 86 100 66 40 100 100 99 100 100 100 100 100 100 100 100 100 100 100 100 100 100 95 100 98 100
5 8 100 100 100 100 58 64 68 100 100 100 100 100 49 6 100 12 5 27 100 18 77 76 100 100 100 100 100 100 100 100 100 100 100 100 100 100 100 100 100 100 100 100 100
9 56 100 100 100 100 45 25 54 100 100 100 99 40 99 11 98 29 6 52 96 100 93 92 90 100 100 100 100 100 100 99 100 100 100 100 100 100 100 100 100 100 100 100 100
6 100 100 100 100 99 98 76 63 100 100 100 49 80 60 24 5 26 8 100 100 39 100 84 100 100 100 100 100 100 100 99 100 100 100 100 100 100 100 100 100 100 100 100 81
92 100 100 100 100 100 45 56 100 97 78 77 77 8 11 100 28 88 100 100 100 66 100 100 100 100 100 100 100 100 100 100 100 94 100 100 100 100 100 100 100 100 100 98 91
58 100 100 100 100 100 31 2 10 28 1 4 5 4 91 96 100 77 100 97 94 100 100 100 100 100 100 100 100 100 100 100 100 100 100 99 100 100 100 82 75 58 64 85 100
95 100 100 100 100 100 29 0 0 5 2 4 34 72 32 100 17 100 36 62 99 100 100 100 100 100 100 100 100 100 100 100 100 100 64 65 68 72 54 47 60 90 100 98 77
86 100 100 100 100 68 0 0 0 4 53 94 79 32 91 67 68 42 39 100 100 100 100 100 100 100 100 100 100 100 100 100 91 81 100 41 5 5 2 4 42 95 93 92 91
100 100 99 100 31 0 0 0 0 2 5 4 5 6 54 43 61 52 8 100 100 100 100 100 100 100 100 100 100 100 100 100 100 89 90 5 89 0 0 3 5 5 5 5 6
100 100 100 5 5 0 0 0 0 0 4 21 58 61 53 63 95 94 20 12 99 100 100 100 100 100 100 100 100 100 100 20 27 12 5 4 0 4 1 5 7 33 32 7 3
100 100 100 72 4 0 0 1 5 5 15 6 18 9 33 100 100 100 100 100 91 100 100 100 100 88 18 100 99 85 37 5 27 4 0 3 5 20 33 34 5 2 0 0 0
100 100 100 100 0 1 0 5 0 4 17 8 84 39 28 12 71 99 52 100 100 99 68 98 70 57 52 29 15 5 5 8 2 0 5 25 46 3 0 0 0 0 0 0 0
100 100 100 12 0 0 15 4 4 2 5 5 4 0 0 0 0 0 1 3 7 14 7 3 1 4 5 5 3 2 3 8 7 9 31 1 0 0 0 0 0 0 0 2 5
100 100 98 0 0 2 97 3 0 0 0 0 0 0 0 0 0 0 0 0 0 0 1 0 0 0 3 6 38 50 92 24 0 0 0 0 0 0 0 0 0 2 5 4 5
73 68 1 0 0 2 38 53 4 0 5 0 0 0 0 0 1 5 5 4 5 5 5 4 5 21 3 7 0 0 0 0 0 0 0 0 0 0 1 2 5 5 4 5 5
50 0 16 2 4 3 100 70 5 5 5 5 0 0 5 6 13 7 5 4 1 0 0 0 0 0 0 0 0 0 0 0 0 0 0 0 3 5 5 5 5 5 5 5 5
3 0 21 5 3 5 100 82 8 5 5 5 5 5 5 5 5 0 0 0 0 0 0 0 0 0 0 0 0 0 0 0 0 2 2 1 5 5 3 5 5 5 5 7 5
3 7 51 5 13 6 100 68 6 5 28 6 5 5 0 2 0 0 0 0 0 0 0 0 0 0 1 0 0 0 1 5 5 5 5 28 2 3 4 5 5 5 5 5 5
8 100 19 5 72 9 100 67 65 21 46 14 5 0 1 0 0 4 0 0 0 0 0 0 0 0 4 2 5 16 60 78 43 5 5 0 1 4 5 5 7 43 5 5 5
12 61 100 16 100 67 100 23 53 43 38 49 5 3 4 4 2 4 5 0 0 3 5 1 5 5 5 13 44 64 96 28 5 5 3 4 5 0 80 6 93 9 5 5 7
7 74 100 100 100 100 100 6 58 76 16 6 34 5 5 5 0 1 5 5 5 5 5 5 28 15 44 17 59 100 50 5 5 3 5 5 5 0 5 7 64 5 5 74 100
1 94 100 100 100 59 100 76 99 85 14 6 5 5 5 2 0 4 2 5 5 5 14 22 5 5 5 33 100 100 5 5 5 4 5 5 5 5 5 5 5 5 80 100 21

GFSSW_prec_cloud_021.txt.gz
Cloud_Cover
7 95 99 6 31 41 0 91 87 100 100 85 90 0 48 100 58 0 0 0 0 0 0 3 94 49 66 78 33 72 100 98 100 83 100 29 25 5 4 54 84 61 71 100 78
0 15 100 100 96 88 0 46 100 100 100 69 0 0 0 100 0 0 0 0 0 0 0 4 62 98 100 100 16 54 100 100 100 94 77 80 43 5 6 36 73 8 76 97 100
0 0 100 100 17 100 30 5 100 100 100 96 10 0 31 33 6 5 0 0 0 0 0 2 100 84 78 69 5 100 100 100 99 100 100 32 6 74 100 83 76 82 78 8 94
0 1 5 85 28 99 71 10 100 100 100 70 1 0 98 100 97 10 0 0 0 0 14 100 90 89 51 8 40 100 100 100 100 100 100 100 67 99 100 100 100 100 86 96 100
2 3 5 96 24 8 72 41 100 100 26 39 78 28 98 100 100 18 0 0 0 0 9 100 100 32 96 69 100 100 100 100 100 100 100 100 100 100 99 97 100 100 98 97 44
0 5 5 95 94 19 96 35 100 80 0 37 97 7 5 98 9 3 5 0 0 26 0 100 100 80 100 98 100 100 100 100 100 100 99 80 100 100 100 70 54 49 99 99 99
4 2 5 99 100 70 73 69 16 4 0 0 39 0 24 6 95 100 5 0 5 99 94 17 100 100 94 95 100 100 100 100 100 100 100 100 100 100 100 100 100 100 100 100 100
5 5 5 94 100 81 100 80 5 3 0 0 3 0 4 64 10 100 64 2 100 100 29 7 99 92 43 100 100 100 100 100 100 100 100 100 88 100 99 100 95 72 52 88 92
4 5 5 100 100 79 94 100 5 0 0 4 2 5 0 3 2 0 88 29 99 100 100 22 96 98 100 100 100 100 100 100 100 100 100 100 98 11 95 100 95 89 71 99 100
5 58 5 100 100 100 79 38 4 31 12 0 4 0 0 74 84 5 65 100 98 61 100 100 100 100 100 100 100 100 100 100 100 100 100 100 100 66 94 100 100 99 100 100 100
5 3 22 68 100 100 88 5 5 5 0 0 0 0 4 40 5 5 13 100 88 100 100 100 100 100 100 100 100 100 100 100 100 100 100 100 100 100 100 82 100 100 100 100 100
5 5 10 100 97 100 18 5 5 5 2 0 9 8 7 90 9 80 97 91 97 100 100 100 100 100 100 100 100 100 100 100 100 100 92 100 100 73 69 100 82 92 95 79 80
28 66 50 99 82 86 78 66 8 5 1 0 1 4 3 10 91 4 100 100 100 100 100 100 100 100 100 100 100 100 100 100 100 94 92 100 100 79 75 61 46 48 32 45 34
84 100 58 100 38 93 96 87 91 17 3 1 0 5 4 3 4 60 9 92 100 100 100 100 100 100 100 100 100 100 100 100 100 59 61 83 100 100 15 2 5 5 15 7 5
100 99 100 100 100 100 100 94 97 5 64 45 4 2 0 4 10 69 4 50 100 100 100 100 100 100 100 99 100 100 98 100 100 99 100 68 8 94 99 5 5 5 4 5 19
100 42 100 100 100 100 100 100 85 5 91 0 2 5 4 3 1 30 0 5 55 88 100 100 100 100 98 99 100 100 100 100 100 76 57 47 100 100 96 25 10 12 48 38 4
100 100 100 100 100 100 100 100 100 96 4 0 0 0 4 4 5 14 89 100 100 86 85 93 91 100 100 100 100 100 100 94 77 99 60 90 2 11 100 45 4 1 0 0 0
100 100 100 100 100 100 100 100 99 24 6 0 0 5 33 6 4 5 11 97 100 100 100 100 100 100 95 100 100 100 95 94 29 100 48 18 10 53 1 0 0 0 0 0 0
100 100 100 100 100 100 100 100 79 5 2 0 0 0 4 2 38 85 100 55 59 76 100 98 100 100 100 98 61 30 5 1 4 21 36 2 0 12 0 0 0 3 0 0 0
100 100 100 63 100 100 46 100 100 5 0 0 0 0 5 0 0 0 4 24 4 9 61 62 76 28 26 28 4 5 5 8 3 0 2 53 12 32 0 0 0 0 0 0 0
100 100 100 100 100 100 89 100 97 0 0 0 0 0 5 5 0 0 16 2 0 3 4 5 32 41 25 18 32 28 4 0 1 3 3 0 7 0 0 0 2 4 4 5 5
100 100 100 100 100 100 100 100 65 1 0 4 5 0 0 2 5 5 14 8 5 6 6 5 5 2 0 1 0 0 5 5 0 2 0 0 0 0 5 6 5 5 5 5 11
100 100 100 100 100 100 100 100 4 5 5 5 4 2 6 62 37 10 5 3 4 0 0 0 0 3 5 1 0 0 0 0 0 0 0 25 3 5 5 5 4 5 5 20 45
100 100 100 100 72 98 100 56 5 5 36 5 5 8 78 68 53 5 4 0 0 0 0 0 0 1 5 90 37 3 0 4 5 5 5 3 0 0 0 5 5 5 5 4 0
100 100 100 100 100 94 8 5 0 5 27 2 4 70 86 15 5 5 5 5 0 0 0 0 0 1 5 5 1 5 13 5 5 5 10 0 4 0 5 8 5 5 5 5 5
68 100 72 6 5 67 37 3 6 12 8 0 6 63 76 5 5 6 5 5 3 0 0 0 0 2 4 0 5 52 14 5 4 5 5 1 10 2 5 5 5 5 5 5 5
68 74 94 67 4 5 36 5 30 89 32 5 15 67 48 6 5 5 5 2 5 3 5 5 5 5 1 5 6 50 5 5 5 2 0 5 5 5 5 4 5 5 5 6 5

GFSSW_prec_cloud_024.txt.gz
Cloud_Cover
5 5 0 93 100 89 100 12 0 5 0 0 0 0 0 0 0 0 1 0 0 0 0 2 0 99 100 100 100 98 9 100 100 76 98 100 100 23 81 100 31 100 100 72 42
5 5 0 4 76 100 100 98 0 3 0 0 6 2 0 0 0 54 61 28 5 0 0 0 0 91 100 100 61 17 61 100 100 97 100 100 100 100 75 100 62 99 100 100 20
5 5 0 0 1 95 100 100 0 10 0 0 4 2 0 2 1 100 100 98 2 0 0 0 0 33 100 91 13 17 74 100 99 98 100 100 100 100 8 8 47 100 100 100 100
33 5 0 0 6 53 60 92 0 3 14 0 5 5 0 0 0 12 95 35 0 0 0 8 10 99 100 92 100 84 100 100 100 90 100 100 100 97 45 74 28 99 100 81 10
5 4 0 2 15 100 82 74 0 41 25 0 0 2 5 0 0 0 0 0 0 0 0 100 99 52 100 100 100 98 95 97 94 100 100 100 100 100 96 100 100 100 100 73 20
5 3 1 0 16 100 100 79 0 32 0 0 0 5 5 0 0 95 4 2 0 0 0 100 100 100 100 98 99 69 88 100 100 100 100 100 99 100 84 78 100 100 100 100 73
95 21 3 5 5 100 100 99 14 0 0 0 2 5 2 0 0 24 5 0 0 42 100 2 98 99 100 100 97 97 100 100 100 100 100 100 100 100 72 15 19 100 100 100 100
100 99 7 5 38 76 100 90 0 0 0 0 3 5 2 0 0 0 80 1 90 100 97 62 97 100 100 96 33 100 100 100 100 100 100 100 100 96 55 36 25 68 91 99 93
100 100 100 18 56 44 94 49 4 0 0 0 0 2 0 0 1 0 0 16 11 95 29 10 92 100 100 100 100 100 100 100 100 100 100 99 98 99 100 100 100 35 100 64 10
100 100 100 64 41 75 39 2 6 0 1 0 1 2 0 1 2 2 4 36 67 88 63 40 77 98 98 99 100 100 100 100 100 100 100 100 100 98 61 70 98 90 84 82 88
100 100 100 100 100 78 16 5 3 4 0 0 6 52 0 1 0 0 0 98 100 100 15 7 82 100 87 100 100 100 100 100 100 95 100 100 98 100 100 96 88 100 100 99 100
100 100 100 100 100 100 33 4 10 3 5 3 4 4 0 0 2 0 0 6 46 49 100 100 100 99 100 100 100 100 100 100 66 99 97 89 96 100 100 100 95 20 56 65 76
100 100 100 100 99 76 15 4 6 4 0 33 3 2 0 0 0 16 0 67 100 97 79 74 98 95 100 100 100 100 100 95 90 100 100 100 100 100 93 18 5 7 86 27 26
100 100 100 100 92 98 9 5 88 5 3 58 20 5 0 0 0 97 47 57 98 94 93 78 100 100 100 100 100 100 91 53 100 100 93 100 100 98 94 95 83 78 14 6 4
100 100 99 100 100 79 49 5 18 18 10 9 5 12 0 0 0 0 5 98 77 85 87 95 99 100 100 100 45 100 81 72 53 100 100 100 84 87 100 100 60 1 5 5 0
100 100 100 100 66 16 44 5 79 20 93 7 19 46 4 0 4 6 16 6 61 95 41 100 100 100 100 100 91 73 94 90 100 100 100 100 100 92 63 99 96 100 97 4 31
100 100 99 89 28 95 86 28 94 100 32 36 5 2 4 2 3 19 1 1 14 99 97 100 100 100 100 100 92 42 100 100 100 100 100 100 100 100 100 92 100 100 100 48 6
100 100 100 100 92 100 60 61 38 100 86 18 5 5 5 5 25 74 5 2 3 28 100 40 100 98 56 65 100 100 53 100 100 100 57 71 99 49 8 55 22 100 9 0 0
100 100 100 100 100 99 100 74 100 28 86 5 12 11 5 75 12 100 30 90 100 100 57 18 95 100 100 100 100 97 99 100 100 98 5 15 20 63 23 5 25 3 0 0 0
100 100 100 100 100 100 83 6 100 100 38 58 6 5 5 20 0 2 18 59 89 98 99 100 100 98 20 50 91 100 94 22 4 5 12 96 52 100 23 0 0 0 0 0 0
100 100 100 100 100 71 25 91 100 100 99 80 30 72 23 38 2 3 3 24 17 93 81 100 97 99 62 100 100 54 37 6 4 32 57 18 35 38 2 0 0 0 1 0 0
100 100 100 100 54 98 14 100 100 100 83 80 76 98 4 99 5 12 30 94 3 5 5 95 100 73 42 100 28 7 42 16 44 8 0 0 0 0 0 0 0 0 0 3 0
100 81 100 100 68 82 99 100 100 100 100 100 98 100 3 5 19 2 35 5 13 3 3 4 4 5 45 31 15 66 27 4 70 5 0 23 0 0 0 0 0 0 0 1 0
100 96 100 79 65 93 100 100 100 92 99 99 100 81 5 6 4 5 12 12 22 68 9 23 5 5 3 10 65 89 9 0 3 0 0 0 0 4 0 2 2 3 0 0 5
100 7 98 100 63 96 100 100 100 100 100 100 89 2 32 15 5 5 13 39 6 0 1 0 0 0 1 16 69 90 40 17 5 0 0 0 0 0 13 4 5 5 1 19 2
78 87 100 99 100 100 100 100 100 100 29 62 61 5 70 13 4 5 44 5 4 0 0 0 0 0 0 0 0 0 3 0 0 3 5 3 5 0 4 3 0 5 5 5 6
86 100 100 100 100 100 100 100 100 100 100 100 5 23 42 94 48 10 10 100 53 4 4 4 0 0 0 0 0 0 0 0 0 3 4 5 27 5 0 0 4 1 5 5 5

GFSSW_prec_cloud_027.txt.gz
Cloud_Cover
100 100 100 13 54 40 100 100 100 0 0 0 0 0 0 0 0 0 0 2 5 5 4 1 0 0 95 100 100 100 100 100 100 89 99 22 96 100 100 96 100 44 8 90 100
100 100 100 100 21 20 100 85 100 0 0 0 0 0 0 0 1 0 0 0 4 4 0 0 0 0 19 100 100 100 100 100 28 100 69 100 100 100 100 76 98 42 100 100 100
100 100 100 12 18 1 100 100 98 0 0 0 0 0 0 0 4 0 0 0 0 2 0 0 0 0 19 100 100 100 100 90 35 10 100 100 100 100 100 78 40 100 100 100 100
100 100 100 100 79 5 97 100 99 0 0 0 0 0 0 2 18 0 0 2 0 0 0 0 0 0 23 100 100 100 100 99 52 55 100 100 100 100 100 99 6 97 100 100 100
100 100 100 97 100 6 60 100 88 1 0 0 0 0 1 0 0 0 2 3 1 0 0 16 56 100 54 100 100 100 100 100 100 98 100 100 100 100 80 94 5 100 100 100 100
100 100 100 100 100 100 5 100 72 0 0 0 0 0 10 0 0 0 0 2 0 0 0 19 100 12 90 100 100 100 100 100 100 100 100 100 100 100 98 87 95 91 100 100 100
100 100 100 100 98 100 74 62 71 5 0 0 0 0 0 0 0 0 0 5 0 0 16 0 98 11 6 99 58 100 100 62 46 100 100 100 100 100 100 100 88 54 99 100 100
100 100 100 100 100 80 85 46 4 5 3 3 0 0 0 0 0 0 0 0 98 100 91 33 96 43 97 100 100 100 82 94 100 100 99 100 100 100 100 100 100 11 86 98 99
100 100 100 100 97 52 100 5 5 5 0 8 1 0 0 0 0 0 0 25 19 4 19 4 5 100 100 99 87 83 100 100 100 100 77 100 93 98 100 65 5 79 100 100 58
100 100 100 100 100 100 99 5 5 5 1 5 0 0 0 0 0 0 1 5 5 5 3 44 54 100 100 100 100 97 100 100 100 96 100 100 98 14 83 91 98 100 78 93 100
100 100 100 100 100 100 92 67 53 5 2 5 0 0 0 0 0 0 0 5 1 5 82 5 42 90 100 100 100 31 96 100 100 100 100 100 100 100 93 97 98 83 100 100 96
100 100 100 100 100 100 100 11 44 5 2 5 0 0 0 0 0 0 0 1 1 94 35 3 93 96 94 100 100 30 100 100 100 90 89 94 100 100 72 100 100 100 100 100 47
100 100 100 100 100 100 80 27 77 5 1 5 0 0 0 3 0 0 0 32 42 94 52 73 98 51 94 100 69 70 98 95 88 51 61 53 30 70 99 100 100 100 48 6 5
100 100 100 100 100 100 81 100 5 5 3 3 0 2 0 0 3 0 22 2 5 61 56 40 86 46 100 87 88 50 98 96 55 89 100 83 99 100 99 90 98 94 100 59 37
100 100 100 100 100 100 100 5 7 5 28 2 0 0 0 0 4 4 54 83 60 5 88 43 100 45 44 15 59 57 100 100 100 97 100 100 40 96 100 98 98 100 68 75 70
100 100 100 100 100 11 100 88 67 67 89 0 2 0 3 0 3 5 76 7 79 91 100 75 51 100 100 94 96 56 98 96 71 100 100 98 29 99 66 97 78 100 100 8 68
100 100 100 100 100 62 100 39 17 73 35 0 2 0 0 4 4 8 3 4 3 15 99 100 97 100 100 100 55 100 99 42 61 91 100 64 100 100 90 85 45 100 100 85 64
100 100 100 100 100 100 100 29 92 59 57 0 5 0 0 0 52 26 38 2 0 0 14 95 93 100 100 88 100 100 66 79 99 100 81 100 89 60 95 85 8 100 87 99 100
100 100 100 100 100 100 98 100 3 100 7 4 6 0 0 5 6 51 98 16 0 0 23 29 26 79 80 97 100 100 6 67 96 100 100 74 94 7 0 2 5 22 97 100 96
100 100 100 100 100 100 68 89 15 86 26 14 6 3 5 7 72 74 0 0 81 56 87 36 24 72 100 96 99 100 56 62 32 100 100 100 12 4 19 30 34 5 7 94 100
100 100 100 100 68 94 77 92 100 88 6 44 96 14 5 6 20 2 2 0 20 100 77 100 100 100 62 98 92 25 95 98 20 36 97 5 29 75 62 5 3 0 0 0 0
100 100 100 100 43 36 42 93 100 100 69 99 36 26 18 61 6 4 2 3 0 55 100 99 100 100 100 99 34 24 87 100 5 9 83 4 20 36 5 4 0 0 0 0 0
100 100 100 100 28 1 5 96 100 92 84 100 80 34 47 100 96 35 18 98 100 14 26 73 100 100 100 75 4 10 10 5 60 5 5 5 6 0 0 0 0 0 0 0 0
100 100 100 97 58 20 10 100 100 70 18 93 100 30 84 77 96 99 5 98 32 6 13 24 30 11 5 11 6 34 5 46 23 6 3 0 0 0 0 3 0 0 0 0 0
100 100 17 100 80 31 77 88 100 6 81 100 100 98 100 70 14 95 4 6 5 5 18 42 35 63 35 5 5 53 5 92 86 39 4 0 0 0 4 5 5 4 2 0 45
100 98 11 99 100 100 95 100 100 100 100 100 100 100 18 7 5 5 0 6 5 5 5 5 5 2 0 0 0 5 0 3 5 0 5 5 4 0 5 2 5 0 0 5 5
100 100 100 100 100 60 5 86 85 100 100 100 100 100 98 47 6 15 12 5 43 5 5 3 0 0 0 0 0 0 0 0 0 0 0 0 0 0 0 0 3 5 18 4 0

GFSSW_prec_cloud_030.txt.gz
Cloud_Cover
100 100 100 100 100 100 100 100 100 100 6 9 0 0 7 0 0 0 0 0 0 0 0 0 0 0 0 0 100 100 100 100 96 9 35 28 100 100 100 86 99 96 49 100 100
100 100 100 100 100 100 100 91 100 100 4 5 0 0 0 0 18 0 0 0 0 0 0 0 0 0 0 4 100 100 100 88 95 99 100 89 100 100 100 100 88 99 100 100 100
100 100 100 100 100 100 100 100 85 100 5 0 0 4 0 0 15 0 0 0 4 0 0 0 0 0 0 66 100 100 100 100 100 92 56 98 100 100 100 83 97 100 100 100 100
100 100 100 100 100 100 100 100 43 100 13 6 24 16 0 0 0 0 0 0 4 0 0 0 0 0 0 92 100 100 100 100 99 45 62 100 100 100 48 53 92 100 100 100 100
100 100 100 100 100 100 100 100 68 100 5 5 37 1 0 0 0 0 0 0 0 0 0 2 52 58 85 18 84 100 100 73 100 82 94 100 100 100 67 88 98 100 100 100 100
100 100 100 100 100 100 100 100 19 33 5 8 14 0 0 0 0 0 0 0 0 1 0 0 55 5 3 22 100 100 69 100 100 100 100 100 100 100 81 87 98 100 100 100 100
100 100 100 100 100 100 100 100 5 44 39 5 0 0 3 0 0 0 0 0 0 34 1 2 98 82 5 91 100 100 100 100 100 100 100 100 100 100 100 100 70 100 100 100 100
100 100 100 100 100 100 100 56 40 51 6 5 0 0 1 0 0 0 0 0 1 0 1 4 9 99 53 100 100 100 100 100 100 100 100 100 100 100 100 54 96 100 100 100 100
100 100 100 100 100 100 100 100 62 68 5 5 2 0 0 0 0 0 0 0 0 0 0 0 3 31 100 100 100 100 71 100 100 100 100 100 100 100 100 99 99 100 100 100 100
100 100 100 100 100 100 100 100 100 56 5 5 1 0 0 0 0 0 0 0 0 0 1 0 4 31 87 100 100 100 100 100 100 100 100 100 100 100 100 100 63 46 19 93 100
100 100 100 100 100 100 100 100 84 18 5 0 1 0 0 0 0 0 0 0 0 0 0 0 4 98 100 100 100 99 90 99 96 100 100 100 100 100 100 100 93 100 37 6 100
100 100 100 100 100 100 100 52 100 55 6 5 0 0 0 0 0 0 0 0 0 0 0 1 81 84 78 99 78 99 62 92 100 62 97 100 100 100 100 90 100 49 32 34 7
100 100 100 100 100 100 100 45 100 48 5 3 2 0 0 0 0 0 1 0 4 2 2 19 5 93 100 100 67 84 100 100 100 100 100 96 77 100 91 85 97 95 93 65 63
100 100 100 100 100 100 100 97 85 5 5 5 5 0 0 0 0 0 5 21 0 4 5 30 80 48 100 89 52 100 100 100 100 100 100 76 98 52 26 69 100 100 100 100 76
100 100 100 100 100 100 100 100 98 99 0 5 3 0 0 0 0 0 3 5 2 5 19 26 16 15 58 93 98 100 89 67 99 100 61 85 63 7 66 26 90 100 100 82 25
100 100 100 100 100 100 96 100 99 48 41 5 2 0 0 0 0 1 5 5 0 5 3 5 5 34 90 91 30 10 69 26 100 100 20 16 12 79 86 78 74 87 100 74 28
100 100 100 99 100 100 100 81 24 93 54 3 2 0 0 0 0 0 44 51 0 1 5 6 83 91 89 93 51 26 26 90 96 98 80 30 19 5 99 97 100 37 19 12 15
100 100 100 100 100 100 100 96 97 92 41 5 0 0 0 0 0 0 3 3 4 5 49 5 13 100 100 88 25 8 90 100 74 27 5 10 5 70 95 89 100 67 1 24 10
93 100 100 100 100 100 100 100 23 100 96 2 0 1 0 0 0 0 0 0 7 0 0 5 7 8 100 100 99 13 39 5 12 98 55 31 5 100 46 5 2 3 0 0 0
97 100 100 100 95 100 100 13 100 100 41 0 0 5 0 0 0 0 0 0 60 0 0 8 30 63 58 71 80 59 95 84 82 100 95 5 5 20 56 5 5 1 0 2 0
100 100 83 100 100 89 100 98 100 100 10 0 0 1 4 2 0 4 4 1 28 5 26 94 2 2 88 69 35 100 100 33 45 17 69 6 6 17 2 4 5 9 5 5 0
100 100 85 89 100 32 100 100 100 91 5 5 0 3 5 3 0 5 2 5 5 0 4 11 10 6 36 7 70 9 12 7 9 60 10 16 0 2 5 5 82 38 0 0 0
100 100 62 11 98 3 25 78 100 97 5 3 3 6 15 3 5 4 5 5 5 3 3 3 67 95 74 28 78 62 100 77 22 59 73 6 1 5 0 4 2 0 5 2 0
100 100 100 100 6 78 76 100 100 100 11 3 36 25 44 5 27 5 5 3 2 2 20 5 5 9 49 10 10 99 67 20 14 26 5 5 1 6 0 0 0 0 0 0 0
100 100 41 100 94 96 100 100 100 14 4 56 45 10 55 98 23 5 4 10 5 54 100 93 6 7 99 98 5 70 15 20 7 5 2 0 4 0 0 0 3 0 0 0 0
100 100 67 9 100 100 100 100 100 100 72 82 100 100 100 91 18 7 82 25 88 5 28 44 5 9 5 2 0 1 0 0 0 94 5 4 2 0 1 35 2 0 2 3 5
100 95 100 9 100 51 35 100 100 100 100 71 100 97 47 98 40 100 100 68 5 3 0 5 5 5 4 0 0 0 0 0 0 4 25 26 5 0 0 0 0 3 5 3 0

GFSSW_prec_cloud_033.txt.gz
Cloud_Cover
100 100 100 100 100 100 100 100 100 100 100 100 95 76 34 18 2 0 0 0 0 0 0 0 0 0 0 0 0 24 100 97 91 95 100 100 99 21 87 80 100 99 100 74 100
100 100 100 100 100 100 100 100 100 100 100 100 62 58 19 6 14 0 0 0 0 0 0 0 0 0 0 0 1 23 100 100 98 100 82 100 100 100 100 100 100 100 100 100 100
100 100 100 100 100 100 100 100 100 100 100 100 93 100 2 2 3 0 0 0 0 0 0 0 0 0 0 31 1 15 100 77 100 77 54 61 100 100 100 100 100 100 100 100 100
100 100 100 100 100 100 100 100 100 100 100 100 100 91 0 5 0 0 0 0 0 0 0 0 0 0 20 68 22 8 100 78 100 100 100 100 100 100 100 100 100 98 100 100 100
100 100 100 100 100 100 100 100 100 100 100 100 95 2 1 0 0 0 0 0 0 0 0 0 0 0 1 0 24 100 100 100 100 100 100 100 100 100 100 100 100 100 100 100 100
100 100 100 100 100 100 100 100 100 100 100 100 17 1 0 0 0 0 0 0 0 0 2 0 2 54 95 0 18 100 100 100 100 100 100 100 100 100 100 100 100 100 100 100 100
100 100 100 100 100 100 100 100 100 100 100 96 9 5 1 0 0 0 0 0 0 0 0 3 6 98 44 4 68 100 100 100 100 100 100 100 100 99 100 100 100 100 100 100 100
100 100 100 100 100 100 100 100 100 100 100 43 5 5 0 0 0 0 0 0 0 0 0 0 0 0 100 57 48 100 100 100 100 100 100 100 100 100 100 100 100 100 100 100 100
100 100 100 100 100 100 100 100 100 100 86 79 38 5 1 0 0 0 0 0 0 0 0 0 0 0 63 98 100 97 100 100 100 100 100 100 100 100 81 100 100 100 100 100 100
100 100 100 100 100 100 100 100 100 100 100 96 28 5 5 0 0 0 0 0 0 0 0 0 0 4 7 100 95 5 73 97 82 100 100 100 100 100 64 100 100 100 100 100 100
100 100 100 100 100 100 100 100 100 100 100 85 20 5 5 0 0 0 0 0 0 0 0 0 0 4 4 88 100 100 100 100 100 100 100 100 100 100 87 100 100 100 100 100 100
100 100 100 100 100 100 100 100 100 100 17 100 6 5 5 0 0 0 0 0 0 0 0 0 2 3 80 76 75 93 96 90 100 100 100 100 100 100 100 76 25 100 100 100 100
100 100 100 100 100 100 100 100 100 100 100 100 30 5 5 5 0 0 0 0 0 0 0 2 24 55 100 100 98 97 90 100 100 100 100 100 100 100 100 98 37 12 65 69 98
100 100 100 100 100 100 100 100 100 100 94 100 100 94 5 4 0 0 0 0 0 0 0 0 70 58 17 24 97 57 55 66 100 100 100 100 100 100 100 99 100 70 90 100 100
100 100 100 100 100 100 100 100 100 100 100 100 100 44 5 5 0 0 0 0 0 0 0 0 5 99 12 5 79 100 77 67 86 100 71 39 100 100 100 100 100 76 77 100 100
100 100 100 100 100 100 100 100 100 100 100 100 100 30 4 2 0 0 0 0 0 0 5 3 5 5 5 5 74 100 100 97 98 100 16 8 29 98 80 58 100 100 100 60 25
100 100 100 100 98 100 100 100 100 100 100 69 99 5 2 0 0 0 0 0 0 3 5 3 3 3 62 54 6 79 100 100 88 88 28 19 33 8 62 58 66 78 100 50 41
100 100 100 100 85 20 100 90 100 100 100 100 45 5 0 0 0 0 0 0 1 5 6 0 0 4 5 99 5 5 29 97 100 100 69 83 70 100 94 68 12 66 98 77 76
28 77 100 100 100 50 87 99 93 100 84 7 56 42 0 0 0 0 0 0 2 5 5 5 1 5 10 10 9 90 64 25 40 48 26 23 41 21 6 47 6 4 5 70 73
53 60 98 100 100 100 94 91 53 85 100 5 57 85 5 0 0 0 0 0 0 0 0 3 5 4 5 3 91 100 19 8 5 5 5 17 51 23 34 11 5 28 1 0 5
90 83 66 100 100 78 63 51 45 100 84 2 38 100 5 2 2 0 0 1 1 0 2 1 0 1 5 1 39 40 5 8 32 40 5 8 70 14 5 10 66 5 0 0 5
97 93 99 100 100 86 52 99 100 100 99 5 3 12 6 5 5 5 0 0 0 5 2 0 0 0 8 5 2 76 58 14 5 38 21 2 62 5 4 6 5 5 0 5 5
100 99 87 99 99 57 96 42 100 100 5 5 5 11 32 100 53 4 1 0 0 0 2 0 0 0 5 5 5 5 0 14 5 26 6 4 5 5 7 5 68 100 6 4 0
100 100 100 96 47 100 79 99 100 100 99 84 33 10 37 100 22 5 0 0 0 0 0 0 0 1 4 5 55 26 0 1 5 20 5 28 4 84 95 91 100 87 8 0 0
100 97 100 100 76 100 100 100 100 100 9 3 1 5 63 100 100 5 5 0 0 4 4 5 3 5 5 5 10 5 5 4 1 5 5 20 20 5 22 49 32 1 0 2 2
100 91 99 100 100 100 100 100 100 100 30 5 5 84 100 100 96 100 5 0 1 0 76 3 3 5 5 1 0 5 80 100 23 5 3 5 5 0 0 0 0 0 0 0 5
97 100 100 100 100 100 96 100 100 100 100 100 100 100 100 100 99 100 5 2 72 10 10 30 1 2 0 0 1 8 0 0 0 0 0 1 2 0 0 1 0 0 0 0 0

GFSSW_prec_cloud_036.txt.gz
Cloud_Cover
100 100 100 100 100 100 95 66 96 100 66 100 100 100 100 100 100 2 0 0 0 0 0 0 0 0 0 0 0 0 73 100 99 100 95 100 100 100 77 100 32 100 100 100 100
100 100 100 100 100 100 100 100 100 100 100 100 100 100 100 100 96 4 0 0 0 0 0 0 0 0 0 0 1 1 100 97 79 100 94 100 100 100 100 100 100 100 100 100 100
100 100 100 100 100 100 100 100 100 100 82 100 100 100 100 100 98 2 0 0 0 0 0 0 0 0 0 0 0 5 77 37 100 90 100 100 100 100 100 100 100 100 100 100 100
100 100 100 100 100 100 100 100 100 100 100 100 100 100 100 100 96 0 0 0 0 0 0 0 0 0 0 0 1 96 98 100 100 100 100 100 100 100 100 100 100 100 100 100 100
100 100 100 100 100 98 100 100 100 100 100 100 100 100 100 100 52 1 0 0 0 0 0 0 0 1 0 1 31 98 100 100 100 100 100 100 100 100 100 100 100 100 100 99 79
100 100 100 100 100 100 100 100 100 100 100 100 100 100 100 86 1 0 0 0 0 0 0 0 0 2 4 1 100 6 100 98 100 100 100 100 100 100 100 100 100 100 100 81 100
100 100 100 100 100 100 100 100 100 100 100 100 100 100 100 35 5 0 0 0 0 0 0 0 0 0 26 5 4 53 100 100 100 100 100 100 100 100 100 100 100 100 80 100 100
100 100 100 100 100 100 100 100 100 100 100 100 100 100 82 56 18 0 0 0 0 0 0 0 0 0 5 32 52 99 100 99 100 100 100 100 100 100 100 100 100 100 100 100 100
100 100 100 100 100 100 100 100 100 100 100 100 100 99 96 100 5 0 0 0 0 0 0 0 0 0 8 9 73 100 26 89 100 100 100 100 100 100 100 100 100 100 100 100 100
100 100 100 100 100 100 100 100 100 100 100 100 100 100 98 91 5 0 0 0 0 0 0 0 0 0 1 100 100 77 99 85 91 100 100 100 100 100 100 100 100 100 100 100 100
99 100 100 100 100 100 100 100 100 100 100 99 100 42 71 93 5 1 0 0 0 0 0 0 0 0 1 91 100 99 56 5 86 94 100 100 100 100 100 100 100 100 100 100 100
100 100 100 100 100 100 100 100 100 100 100 93 100 27 97 100 33 5 1 0 0 0 0 0 0 0 5 5 84 100 100 94 100 94 100 100 100 100 100 100 100 100 100 100 100
100 94 97 100 100 100 100 100 100 100 100 99 100 67 98 100 61 5 0 0 0 0 0 0 0 1 14 5 25 43 97 100 99 100 100 92 100 98 100 83 93 95 100 100 100
100 100 100 100 100 100 100 100 100 100 95 100 100 14 99 100 100 68 5 0 0 0 0 0 0 2 1 1 31 94 12 100 100 100 100 100 77 99 100 100 94 99 72 100 100
100 100 100 100 81 100 100 100 100 100 100 100 63 92 76 100 100 69 5 0 0 0 0 3 0 0 1 0 1 74 12 45 100 100 76 100 100 100 91 78 100 100 100 100 100
100 100 100 100 100 24 100 100 100 100 100 100 94 40 95 100 100 31 5 0 0 0 1 5 5 1 5 1 2 5 63 29 100 99 100 98 98 93 94 95 100 100 100 92 100
100 22 98 100 100 75 100 100 100 100 100 100 100 100 100 100 89 56 5 2 0 0 0 5 3 0 0 3 5 5 16 55 70 9 100 100 86 99 57 17 22 9 68 84 38
100 57 56 100 100 40 100 97 100 100 100 100 100 100 100 99 79 100 8 5 0 0 5 5 1 2 0 0 4 93 35 5 5 5 7 63 93 100 97 99 62 26 19 25 90
100 94 68 98 100 100 100 100 100 100 100 100 100 96 81 54 46 31 64 5 5 0 4 3 5 5 5 5 0 4 6 17 31 16 13 18 100 78 100 100 100 89 77 17 19
99 100 9 90 100 100 100 54 100 100 100 97 97 14 5 5 42 8 98 5 5 0 0 5 3 5 5 65 19 1 5 33 11 5 31 79 93 96 54 100 89 87 100 100 51
85 100 5 63 100 100 83 60 100 100 100 95 12 96 11 5 5 5 38 32 5 2 4 4 0 5 5 5 25 20 1 23 25 55 66 89 98 55 95 63 95 55 100 60 5
100 95 98 100 100 100 100 99 100 100 37 95 92 95 9 0 5 5 5 10 5 5 0 0 0 1 3 72 4 0 56 5 5 58 100 14 78 21 30 100 93 98 95 5 2
100 98 100 100 99 99 96 100 100 100 87 100 92 93 8 5 5 5 15 5 100 86 1 0 0 0 0 0 0 0 3 2 5 5 5 5 14 5 18 9 53 100 77 4 0
100 100 100 100 47 5 54 88 84 100 100 100 100 100 26 6 5 5 23 11 100 99 5 5 0 0 0 1 4 0 1 2 2 5 3 8 5 6 8 44 86 100 36 0 0
100 100 35 100 82 15 18 5 38 93 96 100 100 100 100 100 14 26 7 27 100 84 4 3 0 0 0 78 2 0 8 5 5 5 16 7 7 5 76 72 99 100 53 3 0
100 97 71 7 94 95 100 100 100 100 70 60 99 100 100 100 83 100 56 100 97 32 5 5 0 0 1 4 4 0 0 5 56 57 71 6 83 8 5 10 5 4 5 4 0
69 81 44 22 53 85 60 100 100 100 100 100 100 100 100 100 100 100 100 53 100 100 5 2 0 0 4 5 5 0 0 0 0 4 5 1 0 0 4 4 3 0 3 5 5

GFSSW_prec_cloud_039.txt.gz
Cloud_Cover
92 14 93 36 89 100 100 100 100 100 100 100 100 100 69 47 100 100 44 52 5 0 0 0 0 0 0 0 0 0 54 11 5 46 98 94 100 100 100 100 100 100 70 61 100
100 100 79 99 67 100 100 100 100 100 100 100 100 100 100 97 100 100 80 10 0 0 0 0 0 0 0 0 0 4 100 92 86 86 100 100 100 100 85 98 72 95 100 100 100
100 100 100 100 58 95 97 100 100 100 100 100 100 100 74 100 100 100 7 0 0 0 0 0 0 0 0 0 0 87 100 100 97 100 100 100 100 100 100 100 88 100 100 100 100
100 100 100 100 98 87 100 100 100 100 100 100 100 8 98 100 100 98 5 0 0 0 0 0 0 0 0 1 7 68 88 90 100 100 100 100 100 100 85 81 80 100 100 100 100
100 100 100 100 100 100 100 100 100 100 100 100 30 67 98 99 100 30 7 5 0 0 0 0 0 0 0 1 12 39 52 58 100 100 99 100 100 100 100 100 100 100 100 100 100
100 100 100 100 100 100 100 100 100 100 100 79 81 97 86 76 100 5 5 5 0 0 0 0 0 0 0 3 2 61 57 57 100 100 100 100 93 100 100 100 100 100 100 99 100
100 100 100 100 100 100 100 100 100 100 100 25 100 96 100 100 100 12 12 17 0 0 0 0 0 0 0 0 6 5 58 80 97 100 100 100 100 100 84 100 100 100 97 100 100
100 100 100 100 100 100 100 100 100 100 100 100 100 100 69 67 100 100 37 5 2 0 0 0 0 0 0 0 5 42 93 100 100 100 95 96 99 100 100 98 100 100 100 94 100
88 64 100 99 100 100 99 100 100 100 100 100 100 100 72 65 100 55 5 5 0 0 0 0 0 0 0 0 1 75 97 100 81 100 100 91 100 100 100 100 100 100 100 100 100
100 84 60 76 100 100 100 100 100 100 100 100 100 100 94 65 99 96 10 5 0 0 0 0 0 0 0 1 3 5 53 48 87 98 100 100 100 100 100 100 100 100 100 100 100
100 100 100 100 99 100 100 100 100 100 100 100 100 100 100 78 90 100 85 28 4 1 0 0 0 0 0 1 4 5 30 63 47 6 96 100 100 100 100 100 100 100 100 100 100
100 100 100 100 100 100 100 100 100 100 100 100 100 100 100 89 20 100 100 100 8 5 0 0 0 0 0 0 3 5 6 98 73 96 99 100 100 100 100 100 100 100 100 100 100
100 100 80 87 99 100 88 100 100 100 100 100 100 100 100 98 31 100 93 100 84 2 0 0 0 0 0 0 1 5 33 86 100 100 100 100 100 100 100 100 100 75 100 100 100
100 100 35 100 100 100 93 100 99 100 94 100 100 100 100 98 54 80 93 100 31 0 0 0 0 0 3 1 5 5 7 6 34 99 100 100 100 100 100 100 100 100 100 90 100
100 100 97 100 57 100 92 99 100 100 99 100 100 100 100 52 13 100 100 100 82 0 0 0 0 0 0 4 5 36 12 99 100 95 100 100 100 100 100 81 99 100 100 100 100
100 100 15 56 100 99 51 87 51 69 99 100 100 100 99 66 36 90 100 100 54 4 3 0 0 0 0 4 5 5 5 7 80 97 88 96 100 100 88 93 78 100 100 100 100
100 100 89 10 51 14 88 100 92 100 100 100 100 100 100 29 100 100 100 100 7 5 5 0 0 0 0 3 2 3 0 5 18 92 100 67 94 100 100 100 93 100 98 100 98
100 100 99 10 100 1 33 100 92 100 100 100 100 100 100 93 18 100 100 100 79 5 3 0 0 0 0 0 1 0 0 3 13 100 100 100 100 98 99 100 100 100 100 52 35
100 100 100 0 100 100 91 100 29 100 100 100 100 100 100 97 65 100 100 98 65 5 5 0 0 0 0 0 2 2 1 0 5 48 100 100 100 100 98 92 92 81 100 100 94
100 100 100 12 100 100 100 82 6 100 100 100 94 100 100 100 73 100 100 49 27 5 5 0 0 5 5 82 21 9 5 3 2 5 58 100 100 100 100 100 100 87 96 100 100
100 100 100 17 98 100 97 52 5 100 100 100 98 100 100 86 100 96 100 43 5 8 2 0 3 5 5 32 100 72 6 8 5 1 92 99 100 100 51 91 77 77 16 88 100
100 100 76 5 100 100 100 39 6 87 100 100 100 100 100 100 65 98 100 29 5 59 3 0 1 5 0 8 78 5 5 5 5 1 6 100 100 9 11 5 26 100 100 83 29
100 80 100 4 99 75 16 82 5 52 100 98 100 100 100 100 88 72 100 51 85 5 3 5 15 2 2 5 4 5 0 0 0 0 5 13 100 41 5 60 85 96 100 100 9
100 100 100 91 3 1 56 60 99 38 100 100 100 100 100 100 100 91 100 100 100 8 5 5 5 5 2 0 2 2 0 0 0 0 1 20 100 6 5 34 94 100 49 99 42
100 100 31 100 99 5 2 2 6 86 60 46 100 100 100 100 100 100 100 100 100 72 5 20 88 5 5 0 2 0 0 0 1 5 2 9 84 59 5 62 66 83 24 6 0
100 75 4 99 36 96 96 5 5 100 18 2 100 100 100 100 100 100 100 100 98 16 5 100 100 10 5 2 1 0 0 5 1 0 5 4 62 12 5 9 36 26 56 78 5
98 15 4 5 98 100 22 12 5 100 100 11 100 100 100 100 100 100 100 100 100 36 80 98 91 7 5 1 1 0 0 0 0 0 0 18 5 5 1 0 1 3 5 5 4

GFSSW_prec_cloud_042.txt.gz
Cloud_Cover
100 100 100 100 100 88 47 32 56 84 100 72 100 94 99 100 100 100 27 5 5 2 0 0 0 0 0 0 0 0 5 38 5 14 100 100 100 100 100 99 100 93 81 66 91
53 100 100 100 98 88 67 99 100 100 97 100 100 100 53 87 100 100 5 5 5 0 0 0 0 0 0 0 0 0 27 17 5 46 95 81 75 100 72 93 66 88 100 100 100
36 100 81 96 100 100 100 100 96 49 90 99 99 98 100 100 100 14 5 5 5 0 0 0 0 0 0 0 0 0 13 5 7 66 98 100 100 100 100 100 99 33 100 100 100
17 15 100 100 100 100 100 100 100 100 100 60 100 46 100 97 84 5 5 5 0 0 0 0 0 0 0 1 0 4 0 9 40 100 100 100 100 100 100 19 90 95 100 100 100
2 76 100 100 100 99 100 100 100 100 100 100 100 100 100 19 14 7 81 11 5 0 0 0 0 0 0 0 0 3 1 3 78 100 92 99 67 100 100 100 100 100 100 100 100
2 6 78 100 100 100 100 100 100 100 100 100 100 100 12 6 8 80 44 5 5 5 0 0 0 0 0 0 0 0 93 50 96 69 100 100 65 100 100 100 100 100 100 100 100
44 26 6 100 100 100 100 100 100 100 100 100 100 99 68 65 100 96 27 5 5 2 0 0 0 0 0 0 0 2 44 93 100 100 89 95 91 100 94 100 100 100 100 100 100
100 22 5 5 100 97 100 100 100 100 100 100 86 75 28 48 100 76 66 5 5 2 0 0 0 0 0 0 0 1 10 98 100 99 33 79 100 78 99 100 100 100 100 100 100
100 98 9 20 100 97 58 70 100 100 100 100 100 100 81 100 26 5 5 5 5 5 5 0 0 0 0 0 0 5 100 82 84 94 90 100 78 72 98 96 100 100 99 100 100
81 97 96 21 92 98 58 89 74 41 99 100 98 77 92 100 79 91 5 7 92 87 5 5 0 0 0 0 17 100 91 76 62 99 100 100 86 100 66 96 100 100 100 100 100
100 59 100 38 21 93 100 100 100 90 78 100 100 100 100 100 100 100 38 4 48 100 45 5 0 0 0 0 0 1 54 100 99 66 100 100 100 84 100 61 100 100 100 100 100
100 100 100 28 96 96 100 100 100 100 100 98 100 100 90 100 100 100 10 4 8 100 100 5 0 0 0 0 0 0 4 7 19 28 33 97 98 100 82 71 76 100 100 100 100
100 100 100 99 96 100 100 100 100 100 100 100 100 100 100 100 100 100 19 5 8 100 100 19 0 0 0 0 0 1 7 26 79 100 79 88 87 100 60 32 86 97 100 100 100
100 100 100 100 100 100 100 100 100 100 100 99 81 100 100 100 100 100 78 5 9 100 100 64 0 0 0 0 0 66 6 5 46 82 100 100 100 100 87 24 79 92 99 88 100
100 100 100 100 100 100 100 100 8 27 92 100 27 100 100 100 100 100 89 0 10 100 100 62 2 0 0 0 0 60 13 60 5 57 100 100 81 98 99 10 99 95 100 100 100
100 100 100 100 100 100 100 100 100 86 16 100 66 71 82 100 100 100 6 5 6 100 100 62 5 0 0 1 5 5 32 70 5 30 89 100 78 73 8 89 93 80 48 96 100
64 100 100 100 100 100 100 100 39 46 33 87 97 31 50 100 100 100 91 12 5 98 100 62 5 4 0 0 4 5 11 97 99 86 56 99 100 99 77 68 41 47 84 91 100
26 100 100 98 94 89 98 71 0 9 97 5 68 77 100 100 100 100 100 5 91 100 100 62 5 5 0 0 10 1 21 100 95 65 94 39 64 54 100 100 96 6 9 42 48
7 100 99 100 90 98 100 68 0 2 29 32 84 100 100 100 100 100 100 57 18 100 100 63 5 5 0 0 2 15 6 38 7 5 5 11 82 16 86 100 100 100 39 5 16
5 96 98 88 64 100 100 4 0 2 5 5 60 38 100 100 100 100 100 36 93 93 100 59 17 5 0 0 1 12 26 37 30 92 33 82 12 6 49 99 100 100 92 89 75
54 100 100 62 47 100 99 2 0 2 5 5 100 18 100 100 100 100 100 96 54 89 18 5 5 36 0 1 26 4 5 6 29 30 100 98 100 86 5 5 90 100 100 61 6
45 100 92 100 98 100 100 0 0 2 4 7 100 32 100 100 100 100 100 100 92 86 6 0 5 6 2 11 7 10 88 6 5 57 2 4 91 100 14 4 6 5 15 16 93
90 100 100 100 89 100 11 7 4 5 2 5 100 39 94 100 100 100 100 100 100 55 63 3 5 38 5 3 5 5 0 3 5 4 0 0 32 98 5 5 5 1 5 41 99
99 100 100 100 9 1 4 67 23 5 0 5 13 97 93 100 100 100 100 100 100 99 100 5 5 5 4 4 15 5 0 5 5 0 0 0 16 5 5 5 4 4 5 9 95
100 100 97 99 76 0 4 5 48 76 5 5 5 28 29 98 100 100 100 100 100 100 88 6 100 11 3 21 9 5 3 1 1 0 1 1 5 1 1 5 5 5 5 88 97
100 66 90 5 5 6 0 5 18 82 5 0 5 71 100 100 100 100 100 100 100 100 100 100 100 25 5 25 5 60 1 4 3 1 0 0 1 0 0 1 12 19 5 6 53
100 53 91 15 16 30 65 2 11 100 22 2 96 100 100 100 100 100 100 100 100 100 100 100 100 85 60 5 5 100 4 0 0 5 0 0 0 0 0 0 1 1 3 0 0

GFSSW_prec_cloud_045.txt.gz
Cloud_Cover
15 94 90 100 94 16 12 28 85 99 100 100 100 97 61 51 80 91 92 89 5 1 0 0 0 0 0 0 0 0 5 100 92 30 100 51 52 93 66 95 100 99 17 99 97
31 2 2 32 69 87 26 52 76 87 100 100 100 93 50 29 52 100 100 57 5 5 0 1 0 0 0 0 0 0 84 100 21 54 76 98 81 69 78 71 100 3 78 98 100
0 0 71 14 0 16 100 93 45 100 99 100 100 92 90 21 76 100 96 5 5 5 5 3 0 0 0 0 2 32 89 79 100 11 54 90 97 99 100 100 100 100 98 100 100
0 0 0 0 0 4 24 100 100 100 100 100 100 92 96 100 98 100 50 5 5 5 6 1 0 0 3 19 4 0 61 65 98 100 91 51 93 100 56 100 100 100 100 100 100
4 0 0 0 0 25 73 100 100 100 100 100 89 54 58 100 100 88 6 5 91 73 6 0 0 0 5 5 3 3 7 19 5 7 94 65 68 100 67 100 100 100 100 100 100
89 16 11 4 4 5 82 100 100 100 100 100 37 72 95 100 100 100 5 92 100 74 2 0 0 0 0 0 1 35 4 89 26 32 6 71 64 76 52 59 93 100 100 100 100
68 100 56 5 4 3 5 72 100 100 100 100 100 61 98 100 99 23 56 100 98 5 0 0 1 0 0 5 0 0 8 87 83 72 98 98 99 96 100 100 100 100 100 100 100
100 99 96 94 5 29 5 16 100 100 100 100 100 100 100 100 61 88 48 4 23 5 2 3 6 5 0 0 0 0 38 85 100 31 100 100 100 84 96 100 100 98 100 100 79
100 100 100 8 52 26 5 5 100 100 100 100 95 90 100 100 91 92 99 5 5 5 5 92 90 26 0 0 43 11 98 79 54 100 87 88 97 97 89 73 100 35 100 100 100
100 100 100 98 98 76 53 44 100 67 54 35 98 25 54 64 46 95 100 99 95 5 4 11 16 94 2 4 99 100 86 66 100 100 100 100 100 99 71 19 100 81 100 96 100
100 100 100 100 100 97 87 20 97 98 100 47 34 10 97 93 100 100 100 100 100 38 5 6 99 66 85 73 24 75 89 37 85 64 100 100 93 96 23 8 100 98 100 100 100
100 100 100 100 100 64 94 47 31 11 100 100 100 49 84 93 100 60 100 96 6 58 3 6 100 100 3 0 0 5 80 100 98 54 9 89 100 100 88 16 100 66 100 100 100
100 100 100 100 96 100 99 86 73 5 40 100 100 100 100 93 88 100 100 100 100 49 5 20 100 100 0 0 1 5 78 100 42 100 47 60 95 100 82 21 7 6 100 100 100
100 100 100 100 59 48 98 97 100 16 32 100 100 100 100 58 100 47 100 99 9 50 5 41 100 100 0 1 4 100 51 16 2 5 98 100 99 96 100 50 29 32 100 100 100
100 100 100 100 77 91 39 99 100 100 36 98 100 100 100 100 86 16 95 100 100 99 5 8 100 100 33 4 12 93 13 3 24 98 100 84 44 95 98 96 70 91 95 100 100
100 100 100 100 100 100 94 59 32 100 65 70 100 100 100 100 29 14 15 98 100 75 5 5 45 100 92 4 4 82 4 12 28 60 96 54 87 100 99 100 100 90 77 55 42
100 100 100 100 80 100 100 100 61 6 66 100 100 100 100 100 91 27 40 100 100 80 85 5 72 100 100 4 0 5 98 66 100 98 17 99 24 99 100 45 23 54 95 90 85
100 66 100 100 100 85 100 100 89 99 100 100 100 100 100 100 100 97 12 38 100 100 69 5 54 100 100 6 35 5 89 59 100 100 100 69 1 7 32 5 18 98 6 43 100
100 7 40 43 97 100 100 96 41 100 100 100 100 100 100 100 100 64 12 100 100 100 56 47 78 100 100 7 12 88 63 83 26 6 20 85 20 2 1 3 38 10 59 70 62
100 98 30 14 55 100 100 82 4 93 99 100 100 100 100 100 100 100 18 100 100 100 100 99 99 100 100 5 6 62 73 65 50 97 54 73 97 100 77 1 27 100 95 41 100
100 100 60 6 96 100 100 8 4 21 3 100 100 100 100 100 99 23 59 100 100 100 100 100 100 79 25 16 40 4 29 60 100 90 94 92 92 99 38 5 5 5 38 85 5
100 100 98 46 100 100 100 0 0 0 0 5 36 100 100 100 65 51 100 100 100 100 92 90 100 91 90 89 25 100 49 99 100 92 36 5 4 99 62 4 28 92 100 5 5
100 100 89 100 99 78 5 0 0 2 5 53 94 37 100 99 100 100 100 100 100 100 100 100 100 72 100 91 64 96 95 98 100 94 80 98 4 96 6 60 5 4 5 6 5
100 100 100 100 18 79 2 1 0 4 13 41 100 100 6 9 99 100 100 100 100 100 100 100 100 100 92 89 71 99 32 71 100 98 39 5 88 100 99 82 34 29 71 5 2
100 92 56 100 78 6 1 0 2 0 1 59 100 100 5 66 100 100 100 100 100 100 100 100 100 100 82 85 100 100 86 94 100 96 93 29 100 100 84 58 65 32 15 5 5
100 61 65 14 60 10 96 5 0 5 0 1 92 100 100 91 100 100 100 100 100 100 100 100 100 100 19 86 62 79 99 83 100 96 100 100 37 97 5 5 5 0 0 0 0
100 99 99 53 80 48 23 1 0 23 16 2 3 100 100 100 100 97 100 100 100 100 100 100 100 100 100 100 100 92 100 5 53 20 43 32 5 84 5 5 5 1 0 0 0

GFSSW_prec_cloud_048.txt.gz
Cloud_Cover
0 0 2 0 15 14 20 25 4 5 7 4 5 5 5 53 35 87 54 9 31 55 5 3 0 4 4 0 0 0 7 86 63 90 30 42 100 98 100 62 98 100 100 100 100
6 2 0 0 0 0 0 0 10 2 50 65 35 14 35 5 68 100 11 88 100 38 5 0 0 5 3 0 0 0 92 75 88 15 4 91 16 100 100 100 100 100 100 100 100
5 5 4 0 0 0 0 0 0 6 97 100 76 95 30 8 95 100 95 100 95 85 10 0 44 23 0 0 4 6 86 43 5 54 26 0 32 41 95 100 100 100 100 100 100
97 6 79 5 4 5 1 0 0 2 16 5 100 91 39 100 100 100 100 100 93 100 5 100 100 0 0 35 100 1 4 3 3 9 2 2 3 87 100 100 100 100 100 100 100
100 84 55 90 11 5 5 5 0 0 2 100 100 100 21 35 18 99 41 100 100 28 88 100 44 0 0 96 9 40 12 3 10 0 0 62 68 89 72 32 100 100 100 100 100
100 100 100 6 80 64 31 4 4 0 8 32 100 85 76 13 60 100 82 100 97 28 99 14 0 1 49 4 3 65 6 2 28 24 74 100 100 100 100 97 83 100 100 99 100
100 100 98 97 79 9 7 12 5 4 11 85 100 100 49 94 82 100 69 14 15 5 3 3 0 60 90 6 62 5 0 3 79 4 100 100 100 100 59 42 38 50 98 100 100
100 100 100 100 100 93 5 90 95 2 32 36 100 100 100 100 100 77 96 16 82 41 19 5 0 0 5 100 0 0 2 11 92 16 100 100 100 100 44 95 42 100 90 100 6
100 100 100 100 100 100 46 89 51 26 82 7 90 100 100 100 36 99 100 100 100 100 100 58 0 0 22 77 3 7 1 14 10 4 44 100 100 100 100 100 76 100 100 76 13
100 100 100 100 100 100 50 49 17 43 11 5 29 92 100 77 67 59 100 100 100 100 100 8 3 0 20 100 26 100 100 96 16 62 6 59 100 100 100 96 62 100 100 19 44
100 100 100 100 100 100 100 8 32 100 12 5 30 8 61 72 16 100 100 100 100 100 69 5 0 0 19 100 24 95 37 92 100 24 6 78 86 100 100 100 17 5 100 100 100
100 100 100 100 100 100 99 83 11 61 55 16 60 41 59 34 26 57 100 100 70 100 100 100 6 3 22 100 30 3 2 74 100 92 5 97 25 100 100 52 5 69 100 100 100
100 100 100 100 100 100 100 94 34 78 95 55 84 14 20 100 100 100 100 100 100 100 100 75 58 98 41 99 46 2 2 88 6 41 0 5 84 80 94 97 60 100 99 100 100
99 100 100 100 100 100 100 100 91 19 21 100 8 65 24 100 100 100 100 94 91 100 100 100 50 86 5 31 100 46 44 90 32 19 23 3 11 99 93 43 90 100 100 100 100
100 100 100 100 99 100 100 100 100 90 6 6 8 100 14 81 100 100 100 95 74 70 89 100 48 5 5 8 100 9 74 66 13 2 29 89 7 100 6 9 99 58 41 100 64
100 100 100 100 100 100 100 100 100 100 11 80 45 100 43 100 100 100 100 100 100 88 14 100 73 75 30 5 62 100 10 5 3 2 3 18 100 98 99 71 92 92 8 100 100
100 98 49 100 100 100 100 100 100 53 5 96 76 100 100 100 100 100 100 100 100 56 86 100 15 85 66 5 41 76 5 12 91 50 0 4 12 99 20 100 98 83 6 75 100
100 100 95 100 100 100 100 100 52 12 70 31 69 100 100 100 100 100 100 100 100 100 100 100 90 100 18 42 48 79 11 40 89 84 97 55 99 84 0 65 68 5 9 75 82
100 100 100 100 100 100 100 100 0 7 99 100 100 80 100 100 100 100 100 100 100 100 100 100 100 76 100 100 63 98 42 12 100 41 90 58 52 100 7 12 2 3 0 5 7
98 100 96 92 98 100 100 100 57 48 90 100 100 92 100 98 100 100 100 100 100 100 100 99 100 90 100 100 100 100 79 23 78 58 33 52 17 100 60 41 56 3 0 18 23
100 100 83 95 71 100 100 100 100 100 100 100 100 100 100 100 100 100 100 100 100 100 100 100 100 100 100 100 100 100 47 5 46 28 10 1 84 36 100 100 29 5 0 0 1
100 100 78 92 99 100 74 3 80 85 45 7 9 100 99 100 100 100 100 100 100 100 100 100 100 100 100 100 92 54 71 19 6 47 95 5 5 72 92 72 55 5 0 4 0
100 100 100 100 89 100 43 3 3 0 0 0 1 1 67 100 100 100 100 100 100 100 100 100 100 100 99 100 100 100 98 6 5 5 5 12 18 70 3 0 0 0 0 0 5
100 100 100 100 16 37 8 1 0 2 1 0 0 0 20 98 100 100 100 100 100 100 100 100 100 76 100 100 100 98 100 98 59 92 62 84 12 0 44 29 67 4 54 46 25
100 99 51 100 90 5 88 2 5 5 6 0 5 0 10 25 100 100 100 100 100 100 100 100 75 100 100 100 100 100 100 100 100 65 24 6 5 3 78 100 1 70 36 61 5
100 74 63 59 98 81 84 5 10 5 4 0 0 0 3 96 100 100 100 100 97 100 100 100 68 100 100 100 100 100 100 100 100 6 61 10 94 21 58 89 18 94 5 0 0
100 83 100 16 92 82 22 1 5 16 57 0 0 4 10 1 6 96 73 98 100 99 100 89 10 99 92 100 100 100 100 100 100 100 100 100 56 66 80 70 10 8 8 1 0